Pinedale, WY

3:40 AM MST on December 12, 2017 (GMT -0700)
Wenz

Weather History for KPNA - July, 2013

Change the Weather History Date:

Wednesday, July 3, 2013

  Actual Average (KBPI) Record (KBPI)
Temperature  
Mean Temperature 68 °F -  
Max Temperature 87 °F 77 °F 93 °F (2001)
Min Temperature 50 °F 39 °F 34 °F (1997)
Cooling Degree Days 4    
Growing Degree Days 18 (Base 50)    
Moisture  
Dew Point 42 °F    
Average Humidity 42    
Maximum Humidity 72    
Minimum Humidity 16    
Precipitation  
Precipitation 0.00 in - - ()
Sea Level Pressure  
Sea Level Pressure 30.23 in    
Wind  
Wind Speed 7 mph (NW)    
Max Wind Speed 20 mph    
Max Gust Speed 28 mph    
Visibility 10 miles    
Events Rain , Thunderstorm    
Averages and records for this station are not official NWS values.
T = Trace of Precipitation, MM = Missing Value Source: NWS Daily Summary

Daily Weather History Graph

Daily Weather History Graph

Search for Another Location

Airport or City:

Trip Planner

Search our weather history database for the weather conditions in past years. The results will help you decide how hot, cold, wet, or windy it might be!

Date:

Astronomy

Jul. 03, 2013 Rise Set
Actual Time 5:45 AM MDT 9:00 PM MDT
Civil Twilight 5:11 AM MDT 9:35 PM MDT
Nautical Twilight 4:26 AM MDT 10:20 PM MDT
Astronomical Twilight 3:31 AM MDT 11:15 PM MDT
Moon 2:28 AM MDT (7/3) 5:12 PM MDT (7/3)
Length of Visible Light 16h 24m
Length of Day
15h 15m
Waning Crescent, 18% of the Moon is Illuminated
Jul 3
Waning Crescent
Jul 8
New
Jul 15
First Quarter
Jul 22
Full
Jul 29
Last Quarter

Hourly Weather History & Observations

Time (MDT) Temp. Dew Point Humidity Pressure Visibility Wind Dir Wind Speed Gust Speed Precip Events Conditions
12:15 AM 59.0 °F 37.4 °F 45% 30.30 in 10.0 mi WNW 4.6 mph - N/A   Scattered Clouds
12:35 AM 59.0 °F 41.0 °F 51% 30.30 in 10.0 mi NW 4.6 mph - N/A   Clear
12:55 AM 55.4 °F 41.0 °F 58% 30.30 in 10.0 mi Calm Calm - N/A   Clear
1:15 AM 55.4 °F 41.0 °F 58% 30.30 in 10.0 mi WSW 3.5 mph - N/A   Clear
1:35 AM 59.0 °F 39.2 °F 48% 30.30 in 10.0 mi WNW 5.8 mph - N/A   Clear
1:55 AM 57.2 °F 41.0 °F 55% 30.29 in 10.0 mi NW 6.9 mph - N/A   Clear
2:15 AM 55.4 °F 41.0 °F 58% 30.29 in 10.0 mi Calm Calm - N/A   Clear
2:35 AM 55.4 °F 41.0 °F 58% 30.29 in 10.0 mi Calm Calm - N/A   Clear
2:55 AM 55.4 °F 39.2 °F 54% 30.28 in 10.0 mi NNE 3.5 mph - N/A   Clear
3:15 AM 53.6 °F 39.2 °F 58% 30.27 in 10.0 mi Calm Calm - N/A   Clear
3:35 AM 53.6 °F 39.2 °F 58% 30.27 in 10.0 mi NW 6.9 mph - N/A   Clear
3:55 AM 53.6 °F 39.2 °F 58% 30.27 in 10.0 mi WNW 3.5 mph - N/A   Clear
4:15 AM 50.0 °F 41.0 °F 71% 30.27 in 10.0 mi WNW 4.6 mph - N/A   Clear
4:35 AM 51.8 °F 41.0 °F 67% 30.27 in 10.0 mi NW 5.8 mph - N/A   Clear
4:55 AM 51.8 °F 39.2 °F 62% 30.27 in 10.0 mi Calm Calm - N/A   Clear
5:15 AM 51.8 °F 41.0 °F 67% 30.27 in 10.0 mi Calm Calm - N/A   Clear
5:35 AM 50.0 °F 39.2 °F 66% 30.27 in 10.0 mi West 6.9 mph - N/A   Clear
5:55 AM 50.0 °F 37.4 °F 62% 30.27 in 10.0 mi West 5.8 mph - N/A   Clear
6:15 AM 50.0 °F 41.0 °F 71% 30.27 in 10.0 mi WNW 4.6 mph - N/A   Clear
6:35 AM 50.0 °F 41.0 °F 71% 30.28 in 10.0 mi NW 3.5 mph - N/A   Clear
6:55 AM 51.8 °F 42.8 °F 71% 30.28 in 10.0 mi WNW 4.6 mph - N/A   Clear
7:15 AM 55.4 °F 42.8 °F 63% 30.28 in 10.0 mi Calm Calm - N/A   Clear
7:35 AM 57.2 °F 42.8 °F 59% 30.28 in 10.0 mi WNW 4.6 mph - N/A   Clear
7:55 AM 60.8 °F 42.8 °F 52% 30.29 in 10.0 mi NW 3.5 mph - N/A   Clear
8:15 AM 62.6 °F 42.8 °F 48% 30.28 in 10.0 mi NW 3.5 mph - N/A   Clear
8:35 AM 66.2 °F 41.0 °F 40% 30.28 in 10.0 mi WNW 6.9 mph - N/A Thunderstorm Clear
8:55 AM 69.8 °F 41.0 °F 35% 30.27 in 10.0 mi NW 5.8 mph - N/A   Clear
9:15 AM 71.6 °F 42.8 °F 35% 30.27 in 10.0 mi NW 3.5 mph - N/A   Clear
9:35 AM 77.0 °F 41.0 °F 28% 30.26 in 10.0 mi NNW 5.8 mph - N/A   Clear
9:55 AM 78.8 °F 39.2 °F 24% 30.26 in 10.0 mi NW 5.8 mph - N/A   Clear
10:15 AM 80.6 °F 39.2 °F 23% 30.25 in 10.0 mi NW 6.9 mph - N/A   Clear
10:35 AM 82.4 °F 39.2 °F 21% 30.24 in 10.0 mi NW 11.5 mph - N/A   Clear
10:55 AM 82.4 °F 41.0 °F 23% 30.24 in 10.0 mi NW 18.4 mph 24.2 mph N/A   Clear
11:15 AM 80.6 °F 41.0 °F 24% 30.24 in 10.0 mi NW 16.1 mph 24.2 mph N/A   Clear
11:35 AM 84.2 °F 39.2 °F 20% 30.23 in 10.0 mi WNW 19.6 mph 27.6 mph N/A   Clear
11:55 AM 82.4 °F 37.4 °F 20% 30.23 in 10.0 mi NW 19.6 mph - N/A   Clear
12:15 PM 84.2 °F 41.0 °F 22% 30.22 in 10.0 mi West 13.8 mph 23.0 mph N/A   Clear
12:35 PM 86.0 °F 41.0 °F 20% 30.22 in 10.0 mi WNW 11.5 mph 20.7 mph N/A   Clear
12:55 PM 86.0 °F 37.4 °F 18% 30.21 in 10.0 mi WNW 11.5 mph 27.6 mph N/A   Clear
1:15 PM 86.0 °F 37.4 °F 18% 30.21 in 10.0 mi NNW 13.8 mph 18.4 mph N/A   Clear
1:35 PM 86.0 °F 39.2 °F 19% 30.21 in 10.0 mi NW 13.8 mph 25.3 mph N/A Rain Light Rain
1:55 PM 86.0 °F 37.4 °F 18% 30.20 in 10.0 mi NW 16.1 mph 23.0 mph N/A   Clear
2:15 PM 82.4 °F 33.8 °F 17% 30.19 in 10.0 mi North 5.8 mph 21.9 mph N/A   Clear
2:35 PM 80.6 °F 42.8 °F 26% 30.19 in 10.0 mi West 9.2 mph - N/A Rain Light Rain
2:55 PM 78.8 °F 44.6 °F 30% 30.19 in 10.0 mi WNW 5.8 mph - N/A   Scattered Clouds
3:15 PM 80.6 °F 46.4 °F 30% 30.18 in 10.0 mi NNW 9.2 mph - N/A   Scattered Clouds
3:35 PM 82.4 °F 42.8 °F 25% 30.18 in 10.0 mi NW 16.1 mph 20.7 mph N/A   Scattered Clouds
3:55 PM 84.2 °F 41.0 °F 22% 30.18 in 10.0 mi NW 17.3 mph 23.0 mph N/A   Scattered Clouds
4:15 PM 86.0 °F 37.4 °F 18% 30.17 in 10.0 mi WNW 15.0 mph 21.9 mph N/A   Scattered Clouds
4:35 PM 84.2 °F 37.4 °F 19% 30.16 in 10.0 mi NW 18.4 mph 23.0 mph N/A   Clear
4:55 PM 87.8 °F 35.6 °F 16% 30.15 in 10.0 mi NW 10.4 mph 23.0 mph N/A   Clear
5:15 PM 86.0 °F 37.4 °F 18% 30.15 in 10.0 mi NNW 11.5 mph 25.3 mph N/A Rain Light Rain
5:35 PM 86.0 °F 35.6 °F 17% 30.15 in 10.0 mi West 13.8 mph 23.0 mph N/A   Scattered Clouds
5:55 PM 82.4 °F 42.8 °F 25% 30.17 in 10.0 mi East 16.1 mph - N/A   Clear
6:15 PM 77.0 °F 44.6 °F 32% 30.16 in 10.0 mi SE 12.7 mph 21.9 mph N/A   Clear
6:35 PM 77.0 °F 44.6 °F 32% 30.16 in 10.0 mi SE 9.2 mph - N/A   Clear
6:55 PM 77.0 °F 42.8 °F 29% 30.16 in 10.0 mi ESE 13.8 mph 19.6 mph N/A Thunderstorm Clear
7:15 PM 77.0 °F 42.8 °F 29% 30.17 in 10.0 mi ESE 12.7 mph - N/A   Clear
7:35 PM 77.0 °F 44.6 °F 32% 30.17 in 10.0 mi ESE 9.2 mph - N/A   Clear
7:55 PM 75.2 °F 46.4 °F 36% 30.18 in 10.0 mi ESE 8.1 mph - N/A Thunderstorm Scattered Clouds
8:15 PM 73.4 °F 44.6 °F 36% 30.18 in 10.0 mi ESE 6.9 mph - N/A Thunderstorm Mostly Cloudy
8:35 PM 71.6 °F 44.6 °F 38% 30.19 in 10.0 mi SE 3.5 mph - N/A Thunderstorm Mostly Cloudy
8:55 PM 69.8 °F 50.0 °F 49% 30.20 in 10.0 mi NE 8.1 mph - N/A   Overcast
9:15 PM 68.0 °F 46.4 °F 46% 30.19 in 10.0 mi SE 13.8 mph - N/A Thunderstorm Overcast
9:35 PM 64.4 °F 50.0 °F 59% 30.21 in 10.0 mi ESE 10.4 mph - N/A Thunderstorm Scattered Clouds
9:55 PM 62.6 °F 50.0 °F 63% 30.21 in 10.0 mi ESE 5.8 mph - N/A   Mostly Cloudy
10:15 PM 64.4 °F 50.0 °F 59% 30.22 in 10.0 mi ESE 5.8 mph - N/A   Overcast
10:35 PM 62.6 °F 50.0 °F 63% 30.22 in 10.0 mi SE 6.9 mph - N/A   Mostly Cloudy
10:55 PM 62.6 °F 50.0 °F 63% 30.23 in 10.0 mi ESE 3.5 mph - N/A   Mostly Cloudy
11:15 PM 62.6 °F 50.0 °F 63% 30.23 in 10.0 mi SE 9.2 mph - N/A   Mostly Cloudy
11:35 PM 62.6 °F 50.0 °F 63% 30.24 in 10.0 mi SE 3.5 mph - N/A Rain Light Rain
11:55 PM 60.8 °F 51.8 °F 72% 30.22 in 10.0 mi SSE 4.6 mph - N/A Rain Light Rain